Tracking 35331 objects as of 14-Sep-2026
HD Live streaming from Space Station
objects crossing your sky now

STARLINK-37299

Track STARLINK-37299 now!
10-day predictions
STARLINK-37299 is classified as:


NORAD ID: 100015
Int'l Code: 2026-160Q
Launch date: July 14, 2026
Source: United States (US)
Launch site: AIR FORCE WESTERN TEST RANGE (AFWTR)
Your satellite tracking list
Your tracking list is empty




NASA's NSSDC Master Catalog

Two Line Element Set (TLE):
1 A0015U 26160Q   26257.58976427 -.00776497  00000-0 -52629-2 0  9999
2 A0015  70.0017 211.5452 0003069 296.6021  63.4864 15.76806498 11060
Source of the keplerian elements: AFSPC